Monarch Pass, CO

12:39 AM MDT on May 30, 2017 (GMT -0600)
Monarch Pass

Weather History for KMYP - August, 2013

Change the Weather History Date:

Friday, August 23, 2013

  Actual Average (KALS) Record (KALS)
Temperature  
Mean Temperature 51 °F -  
Max Temperature 60 °F 77 °F 89 °F (1938)
Min Temperature 42 °F 44 °F 35 °F (1941)
Degree Days  
Heating Degree Days 14    
Growing Degree Days 1 (Base 50)    
Moisture  
Dew Point 38 °F    
Average Humidity 63    
Maximum Humidity 93    
Minimum Humidity 36    
Precipitation  
Precipitation 0.00 in - - ()
Sea Level Pressure  
Sea Level Pressure 30.72 in    
Wind  
Wind Speed 12 mph (SSW)    
Max Wind Speed 26 mph    
Max Gust Speed 31 mph    
Visibility 9 miles    
Events Fog , Rain , Thunderstorm    
Averages and records for this station are not official NWS values.
T = Trace of Precipitation, MM = Missing Value Source: NWS Daily Summary

Daily Weather History Graph

Daily Weather History Graph

Search for Another Location

Airport or City:

Trip Planner

Search our weather history database for the weather conditions in past years. The results will help you decide how hot, cold, wet, or windy it might be!

Date:

Astronomy

Aug. 23, 2013 Rise Set
Actual Time 6:26 AM MDT 7:47 PM MDT
Civil Twilight 5:59 AM MDT 8:14 PM MDT
Nautical Twilight 5:26 AM MDT 8:47 PM MDT
Astronomical Twilight 4:51 AM MDT 9:22 PM MDT
Moon 9:11 PM MDT (8/23) 9:21 AM MDT (8/23)
Length of Visible Light 14h 15m
Length of Day
13h 20m
Waning Gibbous, 91% of the Moon is Illuminated
Aug 23
Waning Gibbous
Aug 28
Last Quarter
Sep 5
New
Sep 12
First Quarter
Sep 19
Full

Hourly Weather History & Observations

Time (MDT) Temp. Windchill Dew Point Humidity Pressure Visibility Wind Dir Wind Speed Gust Speed Precip Events Conditions
12:08 AM 44.6 °F 39.2 °F 42.8 °F 93% 30.77 in 0.2 mi ENE 10.4 mph - N/A Fog Fog
12:28 AM 44.6 °F 39.2 °F 42.8 °F 93% 30.77 in 0.2 mi ENE 10.4 mph - N/A Fog Fog
12:48 AM 44.6 °F 40.7 °F 42.8 °F 93% 30.77 in 0.2 mi ENE 6.9 mph - N/A Fog , Thunderstorm Fog
1:08 AM 44.6 °F - 42.8 °F 93% 30.77 in 0.2 mi Calm Calm - N/A Fog Fog
1:28 AM 44.6 °F 42.2 °F 42.8 °F 93% 30.77 in 0.8 mi SE 4.6 mph - N/A Thunderstorm Overcast
1:48 AM 44.6 °F 40.2 °F 42.8 °F 93% 30.77 in 0.2 mi East 8.1 mph - N/A Rain , Thunderstorm Light Thunderstorms and Rain
2:08 AM 44.6 °F 43.1 °F 42.8 °F 93% 30.77 in 0.2 mi East 3.5 mph - N/A Fog Fog
2:28 AM 44.6 °F 37.8 °F 41.0 °F 87% 30.77 in 10.0 mi SW 15.0 mph - N/A Rain , Thunderstorm Thunderstorms and Rain
2:48 AM 44.6 °F 38.8 °F 41.0 °F 87% 30.77 in 4.0 mi SSW 11.5 mph - N/A Rain Light Rain
3:08 AM 44.6 °F 35.3 °F 41.0 °F 87% 30.76 in 7.0 mi SSW 26.5 mph - N/A Rain Rain
3:28 AM 44.6 °F 38.8 °F 37.4 °F 76% 30.76 in 10.0 mi SSW 11.5 mph - N/A Rain Light Rain
3:48 AM 46.4 °F 40.7 °F 37.4 °F 71% 30.75 in 10.0 mi SSW 12.7 mph - N/A   Mostly Cloudy
4:08 AM 46.4 °F 39.2 °F 37.4 °F 71% 30.75 in 10.0 mi SSW 18.4 mph 26.5 mph N/A Rain Light Rain
4:28 AM 46.4 °F 40.4 °F 37.4 °F 71% 30.74 in 10.0 mi SSW 13.8 mph - N/A   Overcast
4:48 AM 44.6 °F 37.8 °F 37.4 °F 76% 30.74 in 10.0 mi SW 15.0 mph - N/A   Scattered Clouds
5:08 AM 44.6 °F 37.4 °F 37.4 °F 76% 30.73 in 10.0 mi SW 16.1 mph - N/A   Clear
5:28 AM 44.6 °F 37.2 °F 37.4 °F 76% 30.73 in 10.0 mi SW 17.3 mph - N/A   Clear
5:48 AM 42.8 °F 34.5 °F 37.4 °F 81% 30.72 in 10.0 mi SW 18.4 mph - N/A   Clear
6:08 AM 44.6 °F 37.2 °F 37.4 °F 76% 30.72 in 10.0 mi SW 17.3 mph - N/A   Clear
6:28 AM 44.6 °F 36.9 °F 37.4 °F 76% 30.72 in 10.0 mi SSW 18.4 mph - N/A   Clear
6:48 AM 44.6 °F 37.4 °F 37.4 °F 76% 30.73 in 10.0 mi SW 16.1 mph - N/A   Clear
7:08 AM 44.6 °F 37.4 °F 37.4 °F 76% 30.73 in 10.0 mi SW 16.1 mph - N/A   Clear
7:28 AM 44.6 °F 36.9 °F 37.4 °F 76% 30.73 in 10.0 mi SW 18.4 mph - N/A   Clear
7:48 AM 44.6 °F 37.4 °F 37.4 °F 76% 30.74 in 10.0 mi SW 16.1 mph - N/A   Clear
8:08 AM 44.6 °F 37.2 °F 39.2 °F 81% 30.74 in 10.0 mi SW 17.3 mph - N/A   Clear
8:28 AM 44.6 °F 37.8 °F 39.2 °F 81% 30.74 in 10.0 mi SSW 15.0 mph - N/A   Clear
8:48 AM 46.4 °F 40.4 °F 41.0 °F 81% 30.74 in 10.0 mi SSW 13.8 mph - N/A   Clear
9:08 AM 50.0 °F - 41.0 °F 71% 30.75 in 10.0 mi SSW 10.4 mph - N/A   Clear
9:28 AM 50.0 °F - 42.8 °F 76% 30.75 in 10.0 mi SSW 9.2 mph - N/A   Clear
9:48 AM 51.8 °F - 42.8 °F 71% 30.75 in 10.0 mi SW 12.7 mph - N/A   Clear
10:08 AM 51.8 °F - 41.0 °F 67% 30.75 in 10.0 mi SSW 15.0 mph 19.6 mph N/A   Clear
10:28 AM 53.6 °F - 42.8 °F 67% 30.76 in 10.0 mi SSW 9.2 mph - N/A   Scattered Clouds
10:48 AM 55.4 °F - 42.8 °F 63% 30.75 in 10.0 mi SSW 12.7 mph 16.1 mph N/A   Scattered Clouds
11:08 AM 55.4 °F - 41.0 °F 58% 30.75 in 10.0 mi SSW 13.8 mph - N/A   Mostly Cloudy
11:28 AM 55.4 °F - 41.0 °F 58% 30.75 in 10.0 mi SW 9.2 mph - N/A   Mostly Cloudy
11:48 AM 55.4 °F - 41.0 °F 58% 30.74 in 10.0 mi SSW 12.7 mph 17.3 mph N/A   Mostly Cloudy
12:08 PM 59.0 °F - 41.0 °F 51% 30.74 in 10.0 mi South 5.8 mph - N/A   Mostly Cloudy
12:28 PM 59.0 °F - 41.0 °F 51% 30.73 in 10.0 mi SW 12.7 mph 17.3 mph N/A   Overcast
12:48 PM 59.0 °F - 41.0 °F 51% 30.73 in 10.0 mi South 8.1 mph - N/A   Scattered Clouds
1:08 PM 55.4 °F - 41.0 °F 58% 30.73 in 10.0 mi WSW 8.1 mph - N/A   Mostly Cloudy
1:28 PM 55.4 °F - 41.0 °F 58% 30.72 in 10.0 mi Calm Calm - N/A   Overcast
1:48 PM 55.4 °F - 41.0 °F 58% 30.71 in 10.0 mi WSW 23.0 mph 31.1 mph N/A Thunderstorm Overcast
2:08 PM 55.4 °F - 42.8 °F 63% 30.71 in 10.0 mi West 11.5 mph 16.1 mph N/A   Mostly Cloudy
2:28 PM 55.4 °F - 39.2 °F 54% 30.71 in 10.0 mi WSW 15.0 mph 20.7 mph N/A Thunderstorm Clear
2:48 PM 57.2 °F - 39.2 °F 51% 30.71 in 10.0 mi West 16.1 mph - N/A   Scattered Clouds
3:08 PM 59.0 °F - 37.4 °F 45% 30.70 in 10.0 mi NW 10.4 mph - N/A   Scattered Clouds
3:28 PM 55.4 °F - 37.4 °F 51% 30.70 in 10.0 mi West 5.8 mph - N/A Thunderstorm Scattered Clouds
3:48 PM 55.4 °F - 37.4 °F 51% 30.69 in 10.0 mi WSW 6.9 mph - N/A   Mostly Cloudy
4:08 PM 55.4 °F - 37.4 °F 51% 30.68 in 10.0 mi SW 9.2 mph - N/A   Mostly Cloudy
4:28 PM 55.4 °F - 37.4 °F 51% 30.68 in 10.0 mi SSW 6.9 mph - N/A   Scattered Clouds
4:48 PM 55.4 °F - 37.4 °F 51% 30.68 in 10.0 mi WSW 12.7 mph - N/A   Scattered Clouds
5:08 PM 57.2 °F - 37.4 °F 48% 30.68 in 10.0 mi SSW 6.9 mph - N/A   Clear
5:28 PM 59.0 °F - 33.8 °F 39% 30.67 in 10.0 mi South 12.7 mph 19.6 mph N/A   Clear
5:48 PM 60.8 °F - 35.6 °F 39% 30.65 in 10.0 mi SSW 9.2 mph - N/A   Scattered Clouds
6:08 PM 60.8 °F - 33.8 °F 36% 30.65 in 10.0 mi South 9.2 mph - N/A   Scattered Clouds
6:28 PM 59.0 °F - 32.0 °F 36% 30.65 in 10.0 mi South 10.4 mph 16.1 mph N/A   Clear
6:48 PM 57.2 °F - 32.0 °F 38% 30.65 in 10.0 mi South 11.5 mph - N/A   Clear
7:08 PM 55.4 °F - 32.0 °F 41% 30.65 in 10.0 mi South 11.5 mph - N/A   Mostly Cloudy
7:28 PM 55.4 °F - 30.2 °F 38% 30.65 in 10.0 mi South 11.5 mph 21.9 mph N/A   Scattered Clouds
7:48 PM 53.6 °F - 30.2 °F 41% 30.65 in 10.0 mi South 12.7 mph - N/A   Mostly Cloudy
8:08 PM 53.6 °F - 28.4 °F 38% 30.66 in 10.0 mi South 13.8 mph - N/A   Overcast
8:28 PM 53.6 °F - 28.4 °F 38% 30.67 in 10.0 mi South 12.7 mph 18.4 mph N/A Thunderstorm Mostly Cloudy
8:48 PM 53.6 °F - 28.4 °F 38% 30.68 in 10.0 mi South 11.5 mph 17.3 mph N/A   Scattered Clouds
9:08 PM 53.6 °F - 28.4 °F 38% 30.68 in 10.0 mi SSW 9.2 mph - N/A   Mostly Cloudy
9:28 PM 51.8 °F - 32.0 °F 47% 30.68 in 10.0 mi West 10.4 mph - N/A   Scattered Clouds
9:48 PM 51.8 °F - 35.6 °F 54% 30.68 in 10.0 mi West 15.0 mph - N/A   Mostly Cloudy
10:08 PM 50.0 °F - 37.4 °F 62% 30.68 in 10.0 mi West 13.8 mph - N/A   Mostly Cloudy
10:28 PM 50.0 °F - 35.6 °F 58% 30.68 in 10.0 mi WSW 12.7 mph - N/A   Overcast
10:48 PM 50.0 °F - 37.4 °F 62% 30.68 in 10.0 mi West 15.0 mph - N/A   Scattered Clouds
11:08 PM 50.0 °F - 35.6 °F 58% 30.67 in 10.0 mi WSW 16.1 mph - N/A   Clear
11:28 PM 50.0 °F - 35.6 °F 58% 30.67 in 10.0 mi WSW 16.1 mph - N/A   Clear
11:48 PM 48.2 °F - 37.4 °F 66% 30.67 in 10.0 mi WSW 13.8 mph - N/A   Clear